[[{"header":{"parameterUnit":"m.s-1","parameterCategory":1,"la1":30.2991,"la2":30.254,"lo1":-89.0895,"lo2":-89.0444,"dy":0.0017,"dx":0.0017,"nx":28,"ny":28,"refTime":"2023-10-18T09:00:00:Z","depth":0,"parameterNumber":2,"parameterNumberName":"U-component_of_WINDS"},"data":[0,0,0,0,0,0,0,0,0,0,0,0,0,0,0,0,0,0,0,0,0,0,0,0,0,0,0,0,0,0,0,0,0,0,0,0,0,0,0,0,0,0,0,0,0,0,0,0,0,0,0,0,0,0,0,0,0,0,0.7049,0.7049,0,0.7056,0.7056,0.7056,0.7035,0.7034,0.7033,0.7033,0.7038,0.7039,0.704,0,0,0,0,0,0,0,0,0,0,0,0,0,0.7016,0.7017,0.7049,0.7049,0.7049,0.7056,0.7056,0.7056,0.7035,0.7034,0.7033,0.7032,0.7038,0.7039,0.704,0,0,0,0,0,0,0,0,0,0,0,0,0,0.7027,0.7017,0.7049,0.7039,0.7039,0.7056,0.7056,0.7056,0.7035,0.7034,0.7033,0.7032,0.7038,0.7039,0.704,0.7066,0,0,0.7043,0.7044,0,0,0,0,0,0,0,0,0.7026,0.7028,0.7041,0.704,0.7039,0.7043,0.7046,0.7059,0.7035,0.7036,0.7033,0.7032,0.7041,0.7041,0.7045,0.7066,0.7067,0.7044,0.7044,0.7045,0.7045,0,0,0,0,0,0,0,0.7026,0.7028,0.7051,0.7041,0.704,0.7034,0.7035,0.7048,0.7044,0.7036,0.7035,0.7036,0.704,0.7044,0.7045,0.7067,0.7043,0.7044,0.7045,0.7046,0.7108,0.7109,0,0,0,0,0,0,0.7026,0.7027,0.7051,0.7052,0.703,0.7035,0.7036,0.7043,0.7044,0.7043,0.7036,0.7035,0.7042,0.7044,0.7045,0.7073,0.7045,0.7046,0.7046,0.7107,0.7108,0.7109,0,0,0,0,0,0,0.7026,0.7029,0.7051,0.7039,0.7042,0.7037,0.7045,0.7044,0.7047,0.7044,0.7043,0.7041,0.7042,0.7043,0.7061,0.7073,0.7046,0.7047,0.7106,0.7107,0.7108,0.7132,0,0,0,0,0,0,0.7025,0.7029,0.7039,0.704,0.7042,0.7067,0.7046,0.7044,0.7049,0.7047,0.7048,0.7047,0.7041,0.7059,0.7062,0.7074,0.7048,0.7104,0.7106,0.7108,0.713,0.7134,0.7138,0,0,0,0,0,0.7024,0.7046,0.704,0.7043,0.7055,0.7068,0.7069,0.7062,0.7051,0.706,0.7058,0.7047,0.7072,0.7061,0.7064,0.7077,0.7103,0.7106,0.7108,0.7128,0.7133,0.7138,0,0,0,0,0,0,0.7047,0.7046,0.7039,0.7062,0.7065,0.7064,0.7077,0.7068,0.7074,0.7072,0.7062,0.7063,0.7081,0.7081,0.7069,0.7101,0.7086,0.7088,0.71,0.7105,0.7109,0.7107,0.7049,0,0,0,0,0,0.7055,0.7066,0.7064,0.7084,0.7086,0.7081,0.7087,0.7081,0.7084,0.7085,0.7084,0.7086,0.7095,0.71,0.7108,0.7131,0.7129,0.7141,0.7145,0.7148,0.715,0.716,0.7165,0.7116,0.7116,0.7116,0,0,0.7071,0.7072,0.7079,0.7089,0.7091,0.7101,0.7083,0.7095,0.7102,0.7087,0.7102,0.7102,0.7104,0.7123,0.7132,0.7124,0.7163,0.7151,0.7154,0.7154,0.7163,0.7167,0.7171,0.7118,0.7117,0.7117,0,0,0.7105,0.7108,0.7124,0.7126,0.7129,0.7125,0.7129,0.7129,0.7128,0.7144,0.7132,0.714,0.7155,0.7157,0.7159,0.7193,0.7183,0.7196,0.7215,0.7225,0.7229,0.7232,0.7242,0.7246,0.7198,0.7198,0.7199,0,0.7125,0.714,0.7133,0.7146,0.7149,0.7136,0.7151,0.7154,0.7159,0.7161,0.7153,0.717,0.7171,0.7189,0.7197,0.7201,0.7204,0.7195,0.7229,0.7232,0.7235,0.7244,0.7248,0.72,0.72,0.72,0.7199,0,0.7163,0.7174,0.7187,0.7191,0.7197,0.7211,0.7205,0.7211,0.7205,0.7202,0.7217,0.7218,0.7224,0.7228,0.7223,0.7246,0.724,0.7231,0.7214,0.7241,0.725,0.7253,0.7202,0.7201,0.7201,0.7201,0,0,0.7211,0.7211,0.7216,0.7217,0.7219,0.7227,0.724,0.7246,0.7251,0.7255,0.7264,0.7277,0.7267,0.727,0.7265,0.7273,0.7297,0.7262,0.7262,0.7267,0.7321,0.7326,0.7331,0.7291,0.7292,0.7293,0.732,0,0.7243,0.7265,0.7258,0.728,0.7288,0.7276,0.7286,0.7288,0.7286,0.7293,0.729,0.7298,0.7286,0.7287,0.7296,0.7293,0.7308,0.7291,0.7298,0.7299,0.7296,0.7335,0.7342,0.7367,0.7323,0.7324,0.7324,0,0.7283,0.7287,0.731,0.7308,0.7312,0.7322,0.7326,0.7333,0.7335,0.7332,0.7335,0.7327,0.7339,0.7324,0.7339,0.7327,0.733,0.7329,0.733,0.7329,0.7312,0.7333,0.7376,0.7379,0.733,0.7329,0.7329,0,0.7312,0.7325,0.7339,0.7341,0.734,0.7347,0.7347,0.7348,0.7352,0.7356,0.7358,0.7363,0.7366,0.737,0.7363,0.7353,0.7378,0.7363,0.7374,0.7375,0.7379,0.7378,0.742,0.7384,0.7384,0.7384,0.7384,0,0.7347,0.7361,0.7352,0.7361,0.7375,0.7367,0.7382,0.738,0.7381,0.7388,0.7378,0.7385,0.7377,0.7383,0.7378,0.739,0.7392,0.7389,0.7387,0.7388,0.7388,0.7389,0.7386,0.7385,0.7385,0.7385,0.7385,0,0.7382,0.7377,0.7391,0.739,0.739,0.74,0.7398,0.7405,0.7402,0.7412,0.7414,0.7408,0.7415,0.7409,0.7416,0.7412,0.7427,0.7424,0.7426,0.7425,0.7436,0.7434,0.7478,0.7482,0.7446,0.7446,0.7446,0,0.7403,0.7413,0.7412,0.7416,0.7417,0.7424,0.7428,0.742,0.7424,0.7426,0.7433,0.7439,0.7442,0.7453,0.745,0.7454,0.745,0.7465,0.745,0.7451,0.7447,0.7446,0.7446,0.7467,0.7467,0.7468,0.7468,0,0.7441,0.7438,0.7443,0.7447,0.7452,0.7455,0.7457,0.7461,0.7454,0.7458,0.7465,0.7468,0.7474,0.7479,0.7483,0.7482,0.7473,0.7473,0.7475,0.7476,0.7476,0.7474,0.7432,0.7471,0.7471,0.7471,0.7471,0.7471,0.7468,0.7475,0.7475,0.7481,0.7482,0.7484,0.7491,0.7488,0.7493,0.7497,0.7493,0.75,0.7501,0.7504,0.7504,0.751,0.7503,0.7508,0.7508,0.7509,0.7509,0.7477,0.7511,0.751,0.751,0.751,0.751,0,0.7503,0.7502,0.7508,0.7511,0.7515,0.7507,0.7509,0.7513,0.752,0.7521,0.7525,0.7531,0.7536,0.7533,0.7537,0.7541,0.7537,0.7543,0.7541,0.7541,0.7516,0.7512,0.7546,0.7546,0.7546,0.7546,0.7546,0.7546,0.7521,0.7533,0.753,0.7541,0.754,0.7547,0.7549,0.755,0.7551,0.7558,0.7562,0.756,0.7559,0.7563,0.7566,0.7565,0.7566,0.7572,0.757,0.7546,0.7543,0.7539,0.7536,0.7573,0.7573,0.7594,0.7594,0.7594]},{"header":{"parameterUnit":"m.s-1","parameterCategory":1,"la1":30.2991,"la2":30.254,"lo1":-89.0895,"lo2":-89.0444,"dy":0.0017,"dx":0.0017,"nx":28,"ny":28,"refTime":"2023-10-18T09:00:00:Z","depth":0,"parameterNumber":3,"parameterNumberName":"V-component_of_WINDS"},"data":[0,0,0,0,0,0,0,0,0,0,0,0,0,0,0,0,0,0,0,0,0,0,0,0,0,0,0,0,0,0,0,0,0,0,0,0,0,0,0,0,0,0,0,0,0,0,0,0,0,0,0,0,0,0,0,0,0,0,2.5705,2.5705,0,2.5735,2.5735,2.5736,2.5692,2.5691,2.5689,2.5688,2.5716,2.5718,2.572,0,0,0,0,0,0,0,0,0,0,0,0,0,2.5605,2.5607,2.5705,2.5705,2.5706,2.5735,2.5735,2.5736,2.5693,2.5691,2.5689,2.5687,2.5715,2.5718,2.572,0,0,0,0,0,0,0,0,0,0,0,0,0,2.5643,2.5608,2.5705,2.5688,2.5686,2.5735,2.5735,2.5736,2.5693,2.5691,2.5689,2.5686,2.5714,2.5718,2.5721,2.5787,0,0,2.5731,2.5732,0,0,0,0,0,0,0,0,2.5641,2.5647,2.569,2.5689,2.5688,2.5708,2.571,2.5753,2.5694,2.569,2.5688,2.5685,2.5715,2.5718,2.5729,2.5788,2.5789,2.5731,2.5733,2.5734,2.5735,0,0,0,0,0,0,0,2.5638,2.5645,2.5717,2.569,2.5689,2.5677,2.568,2.5718,2.5715,2.5691,2.5688,2.5692,2.5714,2.5726,2.5729,2.5789,2.5731,2.5734,2.5736,2.5737,2.5901,2.5904,0,0,0,0,0,0,2.5638,2.5643,2.5716,2.5718,2.5658,2.5681,2.5684,2.5703,2.5714,2.5714,2.5694,2.569,2.5721,2.5725,2.573,2.5805,2.5734,2.5737,2.5739,2.5899,2.5902,2.5905,0,0,0,0,0,0,2.5636,2.5645,2.5714,2.568,2.5688,2.5685,2.5707,2.5705,2.5717,2.5717,2.5716,2.5707,2.5719,2.5725,2.5772,2.5806,2.5739,2.5742,2.5896,2.59,2.5903,2.5959,0,0,0,0,0,0,2.5634,2.5645,2.5671,2.5681,2.569,2.5758,2.5709,2.5708,2.5723,2.5718,2.5729,2.5728,2.5718,2.5768,2.5776,2.5809,2.5744,2.5893,2.5898,2.5902,2.5954,2.5964,2.5972,0,0,0,0,0,2.563,2.5685,2.5672,2.5681,2.5722,2.576,2.5765,2.5753,2.5726,2.5751,2.5751,2.5728,2.5801,2.5773,2.5781,2.5816,2.5891,2.5897,2.5902,2.595,2.5962,2.5972,0,0,0,0,0,0,2.5679,2.5686,2.5672,2.5732,2.5746,2.5753,2.5784,2.5767,2.5788,2.5782,2.5766,2.5768,2.5818,2.5822,2.5791,2.5879,2.5841,2.5849,2.5875,2.5886,2.5895,2.5893,2.5747,0,0,0,0,0,2.5697,2.5728,2.5732,2.5785,2.5792,2.5787,2.5803,2.5793,2.5806,2.5811,2.5815,2.5827,2.5853,2.587,2.5894,2.5955,2.5955,2.5983,2.5992,2.5999,2.6005,2.6035,2.6047,2.5922,2.5922,2.5922,0,0,2.5734,2.5741,2.5762,2.5795,2.5804,2.5835,2.5792,2.5828,2.585,2.5816,2.5861,2.5864,2.5876,2.593,2.5954,2.5935,2.604,2.6006,2.6012,2.6014,2.6042,2.6054,2.6064,2.5926,2.5925,2.5925,0,0,2.5816,2.5827,2.587,2.588,2.5895,2.5891,2.5902,2.5911,2.5912,2.5956,2.5931,2.5957,2.6002,2.6012,2.6022,2.6107,2.6086,2.6115,2.6163,2.6192,2.6202,2.6211,2.6239,2.6249,2.6122,2.6122,2.6122,0,2.586,2.5907,2.5894,2.5931,2.5945,2.5917,2.5959,2.597,2.5991,2.6001,2.5979,2.6034,2.6041,2.6095,2.6116,2.6127,2.6136,2.6113,2.6202,2.621,2.6218,2.6245,2.6256,2.6125,2.6125,2.6124,2.6124,0,2.5958,2.5991,2.6024,2.6046,2.6064,2.6104,2.6095,2.6115,2.6103,2.61,2.6145,2.6152,2.6176,2.6188,2.6177,2.6241,2.6228,2.6205,2.6166,2.6234,2.6258,2.6268,2.613,2.6129,2.6128,2.6127,0,0,2.6072,2.6086,2.6098,2.6107,2.6121,2.6145,2.6182,2.6206,2.6222,2.6238,2.6267,2.6305,2.6283,2.6296,2.6285,2.6311,2.6375,2.6284,2.6284,2.6299,2.6443,2.6459,2.6471,2.6362,2.6364,2.6365,2.6441,0,2.6153,2.6218,2.6208,2.627,2.6299,2.6272,2.6304,2.6315,2.6314,2.6337,2.6335,2.6361,2.6332,2.6339,2.6363,2.6362,2.6403,2.6357,2.6387,2.6388,2.6383,2.6484,2.6502,2.6573,2.6451,2.6453,2.6454,0,2.6256,2.6275,2.6341,2.6348,2.636,2.6389,2.6409,2.6432,2.6443,2.644,2.6454,2.6438,2.6473,2.6435,2.6482,2.645,2.6462,2.6463,2.6466,2.6466,2.6424,2.6486,2.6596,2.6606,2.6469,2.6468,2.6467,0,2.633,2.6372,2.6416,2.6425,2.6435,2.6456,2.6461,2.647,2.6484,2.6501,2.651,2.6531,2.6542,2.6558,2.6547,2.6521,2.6596,2.6557,2.6593,2.6593,2.6608,2.6607,2.672,2.6619,2.6619,2.6619,2.6619,0,2.642,2.6461,2.6449,2.6476,2.652,2.6507,2.655,2.6552,2.656,2.6585,2.6564,2.6588,2.6573,2.6596,2.6588,2.6627,2.6633,2.663,2.6627,2.6631,2.6631,2.6637,2.6631,2.6622,2.6621,2.662,2.662,0,2.6509,2.6504,2.655,2.6555,2.6558,2.659,2.6594,2.6618,2.6615,2.6647,2.6654,2.6649,2.6674,2.6666,2.6693,2.6687,2.6736,2.6728,2.6733,2.673,2.6765,2.6761,2.6884,2.6898,2.679,2.6791,2.6792,0,2.6566,2.6597,2.6606,2.6621,2.6628,2.6654,2.6668,2.6656,2.6671,2.6686,2.6708,2.6731,2.6749,2.6791,2.6788,2.6809,2.6799,2.6841,2.6802,2.6804,2.6797,2.6795,2.6797,2.6848,2.6849,2.685,2.6851,0,2.6667,2.6663,2.6685,2.6705,2.6723,2.6739,2.6752,2.6766,2.6754,2.6773,2.6798,2.6812,2.684,2.6863,2.6881,2.6884,2.6865,2.6864,2.6872,2.6876,2.6877,2.6875,2.6752,2.6861,2.686,2.6859,2.6858,2.6858,2.6741,2.6765,2.6775,2.68,2.6809,2.6821,2.6844,2.6843,2.6865,2.6886,2.6878,2.6907,2.6915,2.6937,2.6944,2.6965,2.6949,2.6963,2.6966,2.6969,2.6972,2.6875,2.6969,2.6969,2.6968,2.6968,2.6968,0,2.6838,2.6843,2.6866,2.6885,2.6904,2.6886,2.6899,2.6916,2.6942,2.6952,2.697,2.6998,2.702,2.702,2.704,2.7057,2.7049,2.7062,2.706,2.7061,2.6987,2.6976,2.7069,2.7069,2.7069,2.7069,2.7069,2.7069,2.6891,2.6932,2.6928,2.6972,2.6976,2.7005,2.7014,2.7025,2.7032,2.7065,2.7084,2.7083,2.7089,2.7108,2.7127,2.7126,2.7134,2.715,2.7146,2.7076,2.7066,2.7057,2.7047,2.7153,2.7153,2.7218,2.7219,2.7219]}]]